Terug naar catalogus

STARLINK-30488

ActiefCommunicatieVLEO
NORAD 57931·PAYLOAD·🇺🇸 United States

Gelanceerd Sep 24, 2023 vanaf Cape Canaveral Space Force Station

Loading…

Volgende Passages (komende 24 uur)

TLE

VersSource: CelesTrak SupGP

Epoch: Sep 15, 2026, 02:25 UTC

1 57931C 23147U   26258.10118056  .00044157  00000+0  15990-2 0  2581
2 57931  43.0032 339.0129 0001906 270.3374 134.3172 15.27563182    10

Volg STARLINK-30488 in realtime met AllMySat

Download on the App Store